Hourly Weather Luky

Today, 18 May, Tuesday

Time Temperature Precipitation Wind Pressure Humidity
00:00 +13°C° 0.1 mm 2 mps 727 mmHg 83%
01:00 +13°C° 0.1 mm 2 mps 727 mmHg 86%
02:00 +12°C° 0 mm 2 mps 727 mmHg 92%
03:00 +12°C° 0.5 mm 2 mps 726 mmHg 93%
04:00 +12°C° 0.5 mm 2 mps 726 mmHg 95%
05:00 +12°C° 0.5 mm 2 mps 726 mmHg 97%
06:00 +12°C° 0.8 mm 2 mps 726 mmHg 96%
07:00 +11°C° 0.8 mm 3 mps 727 mmHg 96%
08:00 +11°C° 0 mm 3 mps 727 mmHg 95%
09:00 +11°C° 0.8 mm 4 mps 727 mmHg 94%
10:00 +10°C° 0.8 mm 5 mps 728 mmHg 93%
11:00 +10°C° 0.8 mm 6 mps 728 mmHg 93%
12:00 +10°C° 0.1 mm 6 mps 728 mmHg 92%
13:00 +10°C° 0.1 mm 7 mps 728 mmHg 92%
14:00 +11°C° 0.1 mm 7 mps 728 mmHg 91%
15:00 +11°C° 0.1 mm 7 mps 729 mmHg 90%
16:00 +10°C° 0.1 mm 7 mps 729 mmHg 89%
17:00 +10°C° 0.1 mm 7 mps 729 mmHg 88%
18:00 +10°C° 1 mm 7 mps 729 mmHg 90%
19:00 +10°C° 1 mm 7 mps 730 mmHg 91%
20:00 +9°C° 1 mm 7 mps 730 mmHg 92%
21:00 +9°C° 0.6 mm 7 mps 730 mmHg 92%
22:00 +9°C° 0.6 mm 7 mps 731 mmHg 92%
23:00 +9°C° 0.6 mm 6 mps 731 mmHg 92%

Tomorrow, 19 May, Wednesday

Time Temperature Precipitation Wind Pressure Humidity
00:00 +9°C° 0 mm 6 mps 731 mmHg 92%
01:00 +9°C° 0 mm 6 mps 731 mmHg 92%
02:00 +9°C° 0 mm 6 mps 731 mmHg 92%
03:00 +9°C° 0 mm 6 mps 732 mmHg 93%
04:00 +8°C° 0 mm 6 mps 732 mmHg 93%
05:00 +8°C° 0 mm 6 mps 732 mmHg 93%
06:00 +9°C° 0 mm 6 mps 732 mmHg 92%
07:00 +9°C° 0 mm 6 mps 733 mmHg 90%
08:00 +9°C° 0 mm 6 mps 733 mmHg 88%
09:00 +10°C° 0 mm 6 mps 733 mmHg 84%
10:00 +11°C° 0 mm 6 mps 733 mmHg 80%
11:00 +13°C° 0 mm 6 mps 734 mmHg 76%
12:00 +14°C° 0.1 mm 6 mps 733 mmHg 73%
13:00 +14°C° 0.1 mm 5 mps 733 mmHg 69%
14:00 +15°C° 0.1 mm 5 mps 733 mmHg 66%
15:00 +15°C° 0.1 mm 4 mps 733 mmHg 65%
16:00 +15°C° 0.1 mm 4 mps 733 mmHg 65%
17:00 +16°C° 0.1 mm 3 mps 733 mmHg 64%
18:00 +14°C° 0.1 mm 3 mps 733 mmHg 71%
19:00 +13°C° 0.1 mm 2 mps 733 mmHg 78%
20:00 +12°C° 0.1 mm 1 mps 733 mmHg 84%
21:00 +11°C° 0 mm 1 mps 733 mmHg 86%
22:00 +11°C° 0 mm 1 mps 734 mmHg 88%
23:00 +10°C° 0 mm 1 mps 734 mmHg 90%

Day after tomorrow, 20 May, Thursday

Time Temperature Precipitation Wind Pressure Humidity
00:00 +10°C° 0 mm 1 mps 734 mmHg 90%
01:00 +10°C° 0 mm 1 mps 734 mmHg 91%
02:00 +9°C° 0 mm 1 mps 733 mmHg 92%
03:00 +9°C° 0 mm 1 mps 733 mmHg 93%
04:00 +9°C° 0 mm 1 mps 734 mmHg 93%
05:00 +9°C° 0 mm 1 mps 734 mmHg 94%
06:00 +9°C° 0.3 mm 2 mps 734 mmHg 93%
07:00 +9°C° 0.3 mm 2 mps 734 mmHg 92%
08:00 +10°C° 0.3 mm 3 mps 734 mmHg 91%
09:00 +11°C° 0.3 mm 3 mps 734 mmHg 88%
10:00 +12°C° 0.3 mm 4 mps 734 mmHg 84%
11:00 +12°C° 0.3 mm 5 mps 734 mmHg 81%
12:00 +13°C° 0.5 mm 5 mps 734 mmHg 80%
13:00 +13°C° 0.5 mm 5 mps 734 mmHg 79%
14:00 +13°C° 0.5 mm 5 mps 734 mmHg 79%
15:00 +13°C° 0.5 mm 5 mps 735 mmHg 79%
16:00 +13°C° 0.5 mm 5 mps 735 mmHg 80%
17:00 +12°C° 0.5 mm 5 mps 735 mmHg 81%
18:00 +12°C° 0.3 mm 5 mps 735 mmHg 81%
19:00 +11°C° 0.3 mm 4 mps 735 mmHg 82%
20:00 +11°C° 0.3 mm 4 mps 736 mmHg 82%
21:00 +10°C° 0 mm 4 mps 736 mmHg 82%
22:00 +10°C° 0 mm 4 mps 736 mmHg 83%
23:00 +10°C° 0 mm 4 mps 737 mmHg 83%

21 May, Friday

Time Temperature Precipitation Wind Pressure Humidity
00:00 +8°C° 0 mm 4 mps 737 mmHg 83%
01:00 +8°C° 0 mm 4 mps 737 mmHg 84%
02:00 +8°C° 0 mm 4 mps 737 mmHg 84%
03:00 +7°C° 0 mm 4 mps 737 mmHg 85%
04:00 +7°C° 0 mm 4 mps 738 mmHg 86%
05:00 +7°C° 0 mm 4 mps 738 mmHg 88%
06:00 +8°C° 0 mm 4 mps 738 mmHg 85%
07:00 +10°C° 0 mm 4 mps 739 mmHg 83%
08:00 +11°C° 0 mm 4 mps 739 mmHg 81%
09:00 +12°C° 0.1 mm 3 mps 739 mmHg 75%
10:00 +14°C° 0.1 mm 3 mps 739 mmHg 70%
11:00 +16°C° 0.1 mm 3 mps 739 mmHg 64%
12:00 +17°C° 0.1 mm 3 mps 738 mmHg 60%
13:00 +18°C° 0.1 mm 2 mps 738 mmHg 57%
14:00 +19°C° 0.1 mm 2 mps 738 mmHg 53%
15:00 +18°C° 0.1 mm 2 mps 738 mmHg 58%
16:00 +19°C° 0.1 mm 1 mps 738 mmHg 62%
17:00 +18°C° 0.1 mm 1 mps 738 mmHg 66%
18:00 +16°C° 0 mm 1 mps 738 mmHg 71%
19:00 +14°C° 0 mm 2 mps 738 mmHg 76%
20:00 +13°C° 0 mm 2 mps 738 mmHg 81%
21:00 +12°C° 0 mm 2 mps 738 mmHg 83%
22:00 +10°C° 0 mm 2 mps 737 mmHg 86%
23:00 +10°C° 0 mm 3 mps 737 mmHg 89%

22 May, Saturday

Time Temperature Precipitation Wind Pressure Humidity
00:00 +9°C° 0 mm 3 mps 737 mmHg 89%
01:00 +9°C° 0 mm 2 mps 737 mmHg 89%
02:00 +9°C° 0 mm 2 mps 737 mmHg 89%
03:00 +9°C° 0 mm 2 mps 737 mmHg 88%
04:00 +9°C° 0 mm 3 mps 736 mmHg 86%
05:00 +9°C° 0 mm 3 mps 736 mmHg 85%
06:00 +10°C° 0 mm 3 mps 736 mmHg 82%
07:00 +12°C° 0 mm 3 mps 736 mmHg 78%
08:00 +14°C° 0 mm 3 mps 736 mmHg 75%
09:00 +16°C° 0 mm 3 mps 736 mmHg 68%
10:00 +18°C° 0 mm 4 mps 735 mmHg 61%
11:00 +19°C° 0 mm 4 mps 735 mmHg 54%
12:00 +20°C° 0 mm 4 mps 735 mmHg 51%
13:00 +21°C° 0 mm 4 mps 735 mmHg 48%
14:00 +22°C° 0 mm 5 mps 734 mmHg 44%
15:00 +21°C° 0 mm 4 mps 734 mmHg 49%
16:00 +21°C° 0 mm 4 mps 734 mmHg 54%
17:00 +20°C° 0 mm 4 mps 733 mmHg 58%
18:00 +19°C° 0 mm 4 mps 733 mmHg 62%
19:00 +18°C° 0 mm 4 mps 733 mmHg 66%
20:00 +15°C° 0 mm 4 mps 733 mmHg 70%
21:00 +15°C° 0 mm 4 mps 733 mmHg 70%
22:00 +15°C° 0 mm 4 mps 733 mmHg 69%
23:00 +15°C° 0 mm 4 mps 733 mmHg 68%

23 May, Sunday

Time Temperature Precipitation Wind Pressure Humidity
00:00 +14°C° 0.1 mm 4 mps 732 mmHg 71%
01:00 +14°C° 0.1 mm 4 mps 732 mmHg 75%
02:00 +13°C° 0.1 mm 4 mps 732 mmHg 78%
03:00 +13°C° 0.1 mm 4 mps 733 mmHg 83%
04:00 +12°C° 0.1 mm 4 mps 733 mmHg 88%
05:00 +11°C° 0.1 mm 3 mps 733 mmHg 92%
06:00 +11°C° 0.1 mm 3 mps 734 mmHg 92%
07:00 +11°C° 0.1 mm 3 mps 734 mmHg 92%
08:00 +10°C° 0.1 mm 3 mps 734 mmHg 91%
09:00 +10°C° 1 mm 3 mps 735 mmHg 93%
10:00 +10°C° 1 mm 3 mps 735 mmHg 94%
11:00 +9°C° 1 mm 3 mps 736 mmHg 95%
12:00 +9°C° 0.6 mm 2 mps 736 mmHg 94%
13:00 +10°C° 0.6 mm 2 mps 736 mmHg 93%
14:00 +10°C° 0.6 mm 2 mps 736 mmHg 91%
15:00 +12°C° 0 mm 2 mps 736 mmHg 86%
16:00 +12°C° 0 mm 2 mps 736 mmHg 80%
17:00 +13°C° 0 mm 2 mps 736 mmHg 75%
18:00 +13°C° 0.1 mm 2 mps 736 mmHg 79%
19:00 +12°C° 0.1 mm 2 mps 737 mmHg 82%
20:00 +11°C° 0.1 mm 3 mps 737 mmHg 86%
21:00 +10°C° 0 mm 3 mps 737 mmHg 88%
22:00 +10°C° 0 mm 4 mps 738 mmHg 89%
23:00 +10°C° 0 mm 4 mps 739 mmHg 91%
Show more

We Need Your Consent

Meteoprog and our Service Providers may store and access personal data such as cookies, device identifiers or other similar technologies on your device and process such data to personalise content and ads, as well as provide social media features and to analyse the traffic.

  • Store and/or access information on your device

    Cookies, device identifiers or other information can be stored or accessed on your device for the purposes indicated above.

  • Personalised ads and content, ad and content measurement, audience insights, and products development

    Ads and content can be personalised based on a profile. More data can be added to better personalise ads and content. Ad and content performance can be measured. Insights about the audience who saw the ads and content can be derived. Such data can be used to develop or improve user’s experience, systems and software.

By clicking ‘I Agree’ you will allow the use of indicated cookies, device identifiers, web beacons or other similar technologies. Your settings can be changed in the browser on your device.

For certain purposes, legitimate interests may be relied on, rather than consent. You can read more about this in our Privacy and Cookie Policy.